Погода в Благовещенске

Погода в Благовещенске : погода сейчас, прогноз погоды и архив. Всё, что Вы хотите узнать о погоде в Благовещенске!

Хотите узнать прогноз погоды в Благовещенске? Тогда Вам сюда: Погода в Благовещенске

Поиск расширенной информации на нашем сайте:

Другие новости

Новости СМИ2

Главная страница сайта

Новости сайта

03.07.2017

Напоминаем, что на нашем специализированном сайте Метеоцентр.Азия вы можете получить высокодетализированные автоматические прогнозы погоды по пунктам России, СНГ и мира в авиационном формате (включающие направление и скорость ветра, видимость, явления погоды, количество и форму облачности, нижнюю и верхнюю границу облачности).


Погода в Благовещенске - сегодня

Время (UTC), дата Ветер
(°,м/с) 
Видим.   Явления Облачность Т
(°С)
Тd
(°С)
f(%) Тe
(°С)
Pmin
(гПа)
dP
(гПа)
Po
(мм)
O2
(г/м3)
Тmin Tmax R s Состояние
почвы
12 22.09.18 080 (В) н/о  слаб. ливневой дождь  10/10 600 м кучево-дожд. 
[Cb cap]
+10.8 +10 95 +13  1011.9  1.2  744  286    +16  0.0     
15 22.09.18 040 (СВ) н/о  {ливн. осадки}  10/0 средняя 
[Ac cuf]
+9.7 +9.6 99 +11  1012.7  0.7  744  288           
18 22.09.18 тихо ()   н/о  слаб. ливневой дождь  10/10 600 м кучево-дожд. 
[Cb cap]
+9.1 +8.5 96 +9  1012.8  744  289           
21 22.09.18 тихо ()   н/о  ливневой дождь  10/10 600 м кучево-дожд. 
[Cb cap]
+9.1 +8.7 97 +9  1013  0.2  744  289           
00 23.09.18 330 (СЗ) 20000 м  в посл. час ливневой дождь  10/10 600 м кучево-дожд. 
[Cb cap]
+9.6 +9.3 98 +11  1013.7  0.7  745  288  +8.7    10    мокрая 
03 23.09.18 330 (СЗ) 20000 м    10/10 600 м кучево-дожд. 
[Cb cap]
+10.7 +9.8 94 +13  1014  0.4  745  287           
06 23.09.18 340 (С) 20000 м  в посл. час ливневой дождь  10/10 600 м кучево-дожд. 
[Cb cap]
+10.8 +9.8 94 +13  1013.6  -0.3  745  287           
09 23.09.18 330 (СЗ) 20000 м    8/4 600 м кучево-дожд., верхняя 
[Cb cap|Ci sp]
+9.7 +9.3 97 +11  1014.1  0.4  745  288           
15 23.09.18 тихо ()   н/о    9/3 600 м кучево-дожд., средняя 
[Cb calv|Ac As]
+8.3 +8.2 99 +8  1015.4  0.1  746  290           
18 23.09.18 290 (З) н/о  слаб. ливневой дождь  10/5 600 м кучево-дожд., средняя 
[Cb cap|Ac As]
+8.5 +8.3 99 +9  1014.9  -0.4  746  290           
21 23.09.18 280 (З) н/о  {ливн. осадки}  10/6 600 м кучево-дожд., средняя 
[Cb cap|Ac As]
+7.8 +7.2 96 +8  1015.1  746  291           
00 24.09.18 310 (СЗ) 20000 м  {ливн. осадки}  9/0 средняя 
[Ac trans]
+9.9 +7.5 85 +9  1015.3  0.4  746  289  +6.9      мокрая 
03 24.09.18 300 (СЗ) 20000 м    10/1 1000 м верхняя 
[Cu hum|Ci]
+15.8 +3.9 45 +16  1014.2  -0.6  746  283           
06 24.09.18 340 (С) 20000 м    8/3 1000 м верхняя 
[Cu hum|Ci fib]
+17.3 +4.6 43 +18  1012.8  -1.3  745  281           
09 24.09.18 340 (С) 20000 м    4/3 1000 м верхняя 
[Cu Sc|Ci fib]
+15.2 +4.5 49 +16  1013.9  0.9  745  284           
15 24.09.18 290 (З) н/о    3/0 средняя, верхняя 
[Ac lent|Ci fib]
+9.5 +4.9 73 +9  1016.2  0.5  747  290           
18 24.09.18 300 (СЗ) н/о    10/0 средняя 
[Ac trans]
+8.2 +4.3 76 +8  1016.6  0.3  747  292           
21 24.09.18 300 (СЗ) н/о    9/0 средняя 
[Ac trans]
+8.9 +4.5 74 +8  1017.2  0.6  748  291           
00 25.09.18 330 (СЗ) 20000 м    9/8 1000 м верхняя 
[Sc|Ci fib]
+11.9 +4.4 60 +12  1018.6  1.5  749  288  +7.7        влажная 
03 25.09.18 320 (СЗ) 20000 м    9/1 1000 м верхняя 
[Cu hum|Ci fib]
+16.6 +1.4 36 +17  1018.4  0.1  749  284           
06 25.09.18 330 (СЗ) 4{11}  20000 м    6/1 1000 м верхняя 
[Cu hum|Cc]
+18 +0.3 30 +18  1017.8  -0.4  748  283           
09 25.09.18 350 (С) 20000 м    6/0 верхняя 
[Ci fib]
+16.1 +1.8 38 +17  1018.6  0.6  749  285           
12 25.09.18 300 (СЗ) н/о    ясно 
+7 +4.5 84 +8  1020.7  1.5  750  294    +18.2       
15 25.09.18 300 (СЗ) н/о    ясно 
+6.4 +3.2 80 +6  1021.7  0.9  751  295           
18 25.09.18 310 (СЗ) н/о    ясно 
+4.2 +2.3 87 +5  1022.6  0.7  751  298           
Время (UTC), дата Ветер
(°,м/с) 
Видим.   Явления Облачность Т
(°С)
Тd
(°С)
f(%) Тe
(°С)
Pmin
(гПа)
dP
(гПа)
Po
(мм)
O2
(г/м3)
Тmin Tmax R s Состояние
почвы

Для получения пояснительной информации подведите курсор к названию столбца.

ПОГОДА в Благовещенске - архив

Всё, что Вы хотите узнать о погоде в Благовещенске - удобно и подробно!

Выберите нужную дату (начиная с 1 января 2015* года) и нажмите кнопку "Найти".
Будут отображены архивные сводки погоды по пункту Благовещенск, начиная с указанной даты.


Отображать данные в формате CSV (для использования в таблицах Excel)


Внимание! Наш архив погоды предназначен исключительно для личного некоммерческого использования в познавательных целях. Если Вам необходимы официальные справки о состоянии погоды (для производственных, юридических, коммерческих и т.п. целей), обращайтесь в органы Росгидромета.

*Примечание: данная дата относится к архиву по метеостанциям СССР (Россия, СНГ, Балтия).
Архив по метеостанциям Зарубежной Европы и Азии (кроме Китая) хранится 10 дней, по другим регионам земного шара (Китай, Африка, Америка, Австралия, Океания) - 1 день.

Благовещенск - район местоположения метеостанции


Название, широта, долгота, высота метеостанции:
Благовещенск 50.2°ш. 127.6°д. 132 м над ур. моря [Российская Федерация]

Дополнительная информация

В oтличие oт бoльшинства пoгoдных сайтoв мы публикуем пoдрoбную метеoинфoрмацию в детальнoм прoфессиoнальнoм фoрмате.

Характеристики температуры и влажнoсти вoздуха измеряются на высoте 2 м в тени вдали oт зданий и деревьев.
Скoрoсть ветра измеряется на высoте 10 м (на урoвне рoста челoвека скoрoсть ветра ниже в 1.5-2 раза). Если метеoстанция нахoдится в гoрoде или в лесу, тo скoрoсть ветра занижена на 2-4 м/с пo сравнению с oткрытым местoм. Скoрoсть ветра над акватoриями крупных рек и oзёр, а также на вершинах хoлмoв на 2-5 м/с выше, чем в oбычных услoвиях.
Атмoсфернoе давление в разных тoчках местнoсти мoжет значительнo oтличаться oт давления на метеoстанции, в зависимoсти oт услoвий рельефа (при пoдъёме на 10 м давление пoнижается примернo на 1 мм рт.ст.).